133P/(7968) Elst-Pizarro (2001)

Japanese version
Home page
Total 6,336 html files since Dec. 4, 1995
Updated on November 13, 2005

---------------------------------------------------------------------

* Profile

* Orbital Elements

Epoch 2001 Nov. 27.0 TT = JDT 2452240.5  
T 2001 Nov. 23.67657 TT                                 Muraoka 
q   2.6354065            (2000.0)            P               Q
n   0.17566287     Peri.  133.00087     +0.39450289     +0.91885830
a   3.1575439      Node   160.22960     -0.84994722     +0.36827026
e   0.1653619      Incl.    1.38549     -0.34922371     +0.14169132
P   5.61
From 186 observations 1979-2000, mean residual 0".64.

* Finding Charts

* Magnitudes Graph

        H = 15.5  G = 0.15

---------------------------------------------------------------------

The orbital elements are calculated by Kenji Muraoka.
The charts are made with StellaNavigator Ver.2.0 for Windows (AstroArts / ASCII).
The magnitudes graphs are made with Comet for Windows.

---------------------------------------------------------------------

Copyright(C) 1995-2008 Seiichi Yoshida (comet@aerith.net). All rights reserved.